Probability
2 6 9 8 10 17 21 19 17 17 18 17 19 22 23 21 17 13 13 13 13 12 9 5 2 1 1 3 3 3 1 1 3 5 5 4 4 6 7 6 4 3 3
2 6 8 7 8 15 20 19 17 17 19 20 20 20 20 18 16 15 13 13 12 12 10 7 3 1 2 3 3 3 2 1 2 4 5 4 4 7 8 7 5 4 4
3 5 8 7 8 12 16 17 15 16 19 21 20 19 18 17 16 16 14 12 12 12 11 9 5 3 3 3 4 4 4 2 1 3 5 5 5 7 9 10 8 7 6
5 7 10 11 11 12 13 15 14 15 17 19 19 18 17 17 17 16 15 14 12 12 11 9 6 5 4 4 5 5 5 4 4 4 6 7 6 7 9 12 12 11 9
7 9 12 15 16 15 15 16 17 15 16 18 18 17 16 16 17 16 16 15 13 11 10 9 8 6 6 6 6 7 7 8 8 8 8 8 7 8 10 12 15 14 13
10 10 13 18 20 18 17 19 20 19 18 20 19 18 17 18 18 17 16 15 13 9 8 8 8 7 7 8 8 9 11 12 11 10 10 9 8 9 11 12 14 15 16
12 12 14 18 21 20 17 18 21 23 23 21 20 19 19 19 19 18 16 14 12 9 8 7 8 9 10 10 10 10 10 11 11 10 9 8 8 9 12 13 13 14 15
15 14 14 17 20 20 17 17 21 25 25 22 20 20 19 19 19 18 17 15 12 10 9 8 9 11 12 10 9 8 7 7 9 9 8 7 7 9 12 14 15 14 14
18 17 15 16 17 18 19 20 23 25 26 25 24 22 20 19 19 19 19 16 14 13 10 8 9 10 10 8 7 6 4 4 6 8 8 8 8 9 11 15 18 17 16
17 16 15 16 16 17 18 21 23 25 25 25 23 22 19 19 19 20 21 20 18 17 14 11 10 10 9 7 6 5 5 6 8 9 9 8 10 11 12 15 19 21 20
13 12 13 15 16 15 16 18 19 19 20 19 18 18 16 16 18 20 22 22 20 19 18 15 13 12 12 11 9 9 9 10 12 13 12 11 11 12 12 13 17 21 22
9 9 10 12 13 12 12 14 14 14 14 14 15 16 15 15 15 17 20 20 18 17 18 16 13 12 13 14 14 14 13 13 15 16 16 15 14 13 13 15 18 20 22
5 5 6 7 7 8 10 12 13 13 13 14 15 15 14 14 14 15 16 16 14 14 15 15 12 12 12 13 14 14 14 15 16 16 16 16 15 15 16 19 20 20 23
3 3 3 3 3 5 8 11 13 14 14 14 13 12 12 12 12 13 14 13 12 13 13 13 12 11 11 10 10 11 13 14 15 14 13 13 14 14 16 17 17 18 21
4 3 3 3 3 4 6 7 10 12 12 11 9 9 9 9 9 9 10 10 10 11 12 12 11 11 10 9 8 9 10 12 12 11 11 11 11 11 12 12 13 14 16
5 5 4 4 3 3 3 4 5 7 8 8 8 7 7 7 5 5 5 6 7 9 10 10 9 9 9 9 8 8 9 10 10 9 10 10 10 10 10 11 12 14 15
6 7 7 6 4 3 2 1 2 4 5 6 6 6 6 5 4 4 4 4 4 6 7 7 8 7 7 8 8 7 7 9 9 9 10 10 10 10 11 13 14 15 16
7 8 9 8 5 3 1 0 0 2 3 4 4 5 5 5 5 4 4 3 3 4 4 5 6 6 6 7 6 5 5 8 9 9 9 9 9 10 11 13 13 14 15
7 8 9 8 4 1 0 0 0 1 2 3 3 4 4 5 6 5 4 3 3 3 3 4 5 6 6 6 6 5 5 6 6 6 6 6 6 7 9 10 9 10 13
5 6 6 5 3 1 0 0 0 1 2 2 2 3 4 5 6 5 4 3 3 3 3 3 4 5 6 6 6 6 5 4 4 4 4 4 4 5 7 8 7 9 10
5 4 4 3 1 0 0 0 0 0 1 1 1 3 4 5 5 4 3 3 3 3 3 3 3 4 5 6 6 6 6 4 3 3 3 3 3 4 5 6 7 8 10
5 4 3 2 0 0 0 1 1 1 0 0 1 2 4 5 4 3 3 3 3 3 3 3 3 3 4 6 6 6 5 3 3 3 3 2 3 3 4 4 5 7 7
5 4 3 2 1 0 1 2 3 3 2 2 1 1 2 4 5 3 2 2 3 3 3 3 3 3 4 5 6 5 3 2 2 3 3 3 2 2 2 2 3 4 6
5 4 3 2 1 0 1 3 4 4 4 3 2 1 0 2 3 3 2 2 3 3 4 4 4 3 4 5 6 5 2 0 1 2 3 3 2 1 1 1 1 3 4
4 3 2 1 0 1 2 3 3 4 4 3 2 1 0 0 1 1 1 2 2 3 4 4 4 4 4 5 6 4 1 0 0 1 1 2 1 0 0 0 0 1 1
3 2 1 0 1 2 3 3 3 3 3 3 2 1 0 0 0 0 0 1 1 1 2 3 4 5 4 5 5 4 1 0 0 0 0 1 0 0 0 0 0 0 0
Wind_Speed
4 6 12 12 11 12 12 13 13 13 14 14 14 14 14 14 13 13 13 13 12 12 11 10 9 8 8 8 7 7 6 6 6 6 7 7 7 7 7 7 7 6 8
7 7 13 12 12 12 12 12 13 13 13 13 14 14 14 13 13 13 13 12 11 11 10 10 9 8 7 7 6 6 6 5 5 5 6 6 6 6 7 7 8 5 8
7 7 10 12 11 11 12 11 12 12 12 13 13 13 13 12 12 12 12 11 10 10 10 9 8 7 7 6 6 5 5 5 5 5 5 3 3 6 7 8 8 8 9
7 6 8 12 11 11 11 11 11 12 12 12 12 12 12 12 11 11 11 10 10 9 8 8 7 7 6 6 5 5 5 5 5 5 3 2 3 6 7 7 8 9 9
6 5 7 12 11 11 11 11 11 11 11 11 11 11 11 11 10 10 9 9 9 8 8 7 7 7 6 6 5 5 5 5 5 4 3 3 3 5 7 8 8 9 10
5 4 6 11 10 10 10 10 10 10 10 10 10 10 10 9 9 9 9 8 8 7 7 7 6 6 6 6 6 6 6 6 5 3 2 3 3 6 7 8 9 9 10
5 3 3 8 8 8 9 9 9 9 9 9 9 9 9 8 8 8 8 8 7 7 7 6 6 6 6 6 7 6 6 7 4 4 3 4 4 6 8 9 10 10 10
5 3 2 6 7 7 7 7 7 7 7 8 8 8 8 7 7 7 7 7 7 7 7 7 6 6 6 6 7 7 7 7 5 4 4 4 6 8 8 9 9 9 10
5 4 2 2 3 5 6 6 6 6 6 6 7 7 7 6 6 6 6 7 7 7 7 7 7 7 6 7 7 7 7 8 5 3 5 4 6 8 9 9 10 10 10
4 4 2 2 2 2 2 5 5 5 5 5 6 6 5 5 5 6 5 6 7 7 8 8 8 8 7 7 7 7 8 7 4 4 4 5 8 9 10 9 10 11 11
3 2 2 2 2 2 1 3 3 4 4 4 4 6 5 2 2 3 5 6 7 7 8 8 8 8 7 7 8 8 7 3 4 4 4 7 10 10 10 10 10 10 11
2 1 1 1 2 2 1 1 0 1 1 1 1 2 1 1 2 3 4 6 6 7 7 8 8 7 5 3 5 7 3 4 4 4 5 10 11 11 11 11 10 11 12
2 2 2 2 2 2 1 1 0 0 0 1 1 1 0 0 1 1 1 2 3 4 3 3 3 2 2 2 3 3 3 3 3 4 5 10 11 12 12 11 11 11 11
3 2 2 2 2 1 1 1 1 0 0 1 1 1 1 0 1 1 1 1 2 1 2 2 2 2 3 3 4 4 4 3 3 3 5 10 10 11 12 12 12 12 12
3 2 2 2 2 2 1 1 1 1 1 1 1 1 2 1 2 2 2 1 2 2 2 2 2 3 3 3 3 4 5 5 4 5 4 10 10 11 12 13 12 12 13
2 2 1 1 2 2 1 1 1 1 1 1 1 1 2 2 2 2 2 2 2 2 2 2 3 3 3 2 3 4 4 4 4 5 5 6 10 10 11 12 12 12 12
2 1 1 1 1 1 1 1 1 1 1 1 1 2 2 2 2 2 2 2 2 2 2 2 2 2 2 2 3 3 3 4 4 5 5 4 5 9 10 10 11 11 12
1 2 1 1 1 1 1 0 0 1 1 1 1 1 2 2 2 2 2 2 2 1 1 2 1 1 2 2 3 3 3 3 4 5 4 4 4 4 7 10 10 10 11
2 2 1 1 1 1 1 0 0 0 0 1 1 1 2 2 2 2 2 2 1 1 1 2 1 1 2 3 3 3 3 3 4 4 4 5 5 5 4 7 10 10 10
1 1 1 1 1 1 1 1 1 1 1 1 1 1 1 1 1 1 1 2 1 1 1 1 2 2 2 3 3 3 3 3 3 3 4 4 4 5 5 5 5 6 9
1 2 2 1 1 1 1 1 0 1 1 1 1 2 1 1 2 1 1 1 1 1 2 2 2 2 2 1 1 2 3 3 3 3 3 3 4 4 4 4 4 3 4
1 2 1 1 1 1 1 1 1 1 1 1 2 2 2 2 2 1 1 1 1 1 2 2 2 2 2 1 1 1 2 3 3 3 3 3 4 3 3 4 3 4 4
1 1 1 1 1 1 1 1 1 1 1 1 1 1 2 2 2 1 1 1 1 1 2 3 2 3 2 2 2 2 2 3 3 3 3 2 2 2 3 3 4 5 5
2 1 1 1 1 0 0 1 1 0 1 2 1 1 2 2 2 2 2 2 2 2 2 3 2 3 3 3 2 2 2 2 2 3 2 2 2 3 4 3 4 4 4
1 1 0 0 0 0 1 1 1 1 1 1 1 1 2 2 2 2 2 1 2 2 2 3 2 3 3 3 2 2 2 2 3 3 4 3 2 3 3 3 3 3 4
0 1 1 1 1 1 0 1 1 2 1 1 2 2 2 2 2 3 2 1 1 1 2 2 3 3 3 3 3 2 2 2 2 3 3 3 4 3 3 3 3 3 3
Wind_Direction
166 162 159 151 146 138 133 129 126 125 124 125 128 131 133 136 138 143 146 149 150 151 151 149 148 147 147 148 148 151 156 160 165 171 173 173 174 180 183 178 177 176 173
152 157 158 153 149 142 136 132 129 128 128 129 132 134 136 139 142 145 149 151 153 155 155 156 156 154 154 155 155 159 162 168 175 182 187 186 190 192 191 190 188 183 180
137 151 158 155 150 144 138 134 134 133 133 134 136 138 141 143 146 148 151 154 157 159 161 162 163 163 164 164 165 170 174 179 187 194 194 191 202 206 203 203 196 189 187
135 141 155 156 152 147 143 141 141 139 139 141 142 144 146 149 151 152 154 159 161 164 167 169 171 173 176 178 180 186 191 195 200 203 192 199 213 216 211 209 205 202 196
129 136 157 154 154 152 150 148 148 146 147 148 149 150 150 153 156 160 163 167 168 172 175 180 183 186 190 193 197 204 209 213 215 208 194 202 216 228 224 216 212 209 204
114 122 153 152 155 155 155 153 153 152 154 155 154 154 155 159 164 170 174 176 179 184 188 192 197 201 204 207 214 219 222 227 220 205 200 204 217 234 233 227 220 216 208
100 96 128 148 154 157 157 158 159 159 159 160 160 162 165 170 175 181 185 188 191 196 201 207 210 213 217 220 225 228 232 234 210 202 208 215 228 241 240 233 228 225 213
99 94 106 147 155 159 160 160 163 163 164 167 168 171 174 179 186 195 201 201 205 209 214 220 222 226 229 233 237 240 240 239 226 217 217 221 237 245 240 234 232 228 217
87 85 85 120 153 163 165 166 169 166 169 173 176 178 182 189 195 203 214 219 218 221 225 229 232 233 236 240 243 247 247 244 229 219 230 226 239 244 240 235 229 223 218
85 85 81 78 101 127 162 172 171 171 175 180 183 182 193 202 208 216 221 229 230 233 237 239 241 242 241 244 246 249 250 248 239 230 233 234 239 243 240 238 232 224 220
96 88 94 92 93 97 133 180 179 181 185 192 196 193 196 207 221 230 233 236 239 240 241 245 246 246 247 251 250 247 247 238 232 233 235 241 241 242 238 238 236 228 223
145 150 131 130 113 108 132 87 59 195 200 196 183 196 186 189 225 239 255 252 251 252 252 254 251 249 248 249 254 252 241 236 234 236 241 246 245 241 237 236 234 230 225
169 185 179 161 140 141 131 124 131 320 270 218 202 201 172 201 267 270 271 281 280 268 264 269 267 248 239 232 239 240 238 236 234 240 247 252 249 243 240 237 234 231 227
158 200 206 178 161 162 153 151 159 190 240 237 205 202 147 221 267 265 263 279 282 276 270 265 258 250 245 243 239 243 243 237 236 240 248 253 250 244 243 240 239 236 232
172 191 194 176 173 169 159 172 160 187 205 211 183 189 176 194 240 258 263 263 269 272 268 265 261 259 250 250 249 245 246 243 241 241 250 255 253 246 245 243 241 241 237
188 195 192 165 166 163 177 183 198 188 175 186 205 215 198 202 218 238 257 267 267 260 259 255 255 253 253 248 252 253 251 248 243 240 242 253 255 253 250 246 243 241 240
182 158 165 164 135 163 188 207 191 207 180 196 224 220 213 215 219 239 251 260 261 260 263 257 255 253 258 255 261 264 260 253 253 247 244 244 254 255 252 249 244 241 239
130 115 117 149 133 163 177 228 235 223 207 213 224 221 224 221 213 228 246 256 255 248 249 256 259 256 262 266 266 268 264 260 258 254 250 246 245 251 255 253 248 243 239
159 121 93 107 143 155 135 111 332 321 260 248 248 242 235 223 213 213 240 256 256 256 263 268 260 242 252 263 264 263 261 258 259 260 257 253 247 244 244 252 249 246 244
140 132 146 160 139 128 109 81 32 357 329 312 273 259 247 245 237 221 241 260 260 252 264 262 261 258 249 255 271 279 276 266 257 253 256 259 253 248 245 246 250 252 248
141 159 182 186 188 131 100 109 69 295 301 305 282 274 271 263 257 232 252 268 259 242 248 248 245 268 267 254 267 297 292 272 257 251 249 254 260 257 251 244 237 236 251
196 182 180 207 208 194 179 178 193 223 269 270 288 314 296 292 283 258 234 252 252 254 272 257 235 240 258 230 197 273 303 309 288 267 255 249 258 260 258 255 242 233 237
228 201 192 224 228 227 197 95 41 29 1 341 332 330 318 316 315 296 265 255 263 253 260 263 241 230 249 251 206 196 212 252 292 285 260 259 258 254 258 257 248 242 235
238 220 201 202 213 237 134 130 138 198 263 265 275 278 305 314 306 299 293 278 264 259 266 273 261 239 233 249 241 224 224 217 238 289 288 269 264 260 260 261 256 249 239
200 168 212 122 359 329 143 154 164 235 254 283 309 319 315 309 306 310 308 299 287 274 267 274 282 257 230 233 230 220 226 236 233 241 275 289 292 269 260 256 254 253 248
60 56 32 22 325 311 253 212 195 227 258 302 310 306 308 304 302 313 318 301 281 279 273 270 268 263 245 239 236 225 217 214 218 226 251 270 280 281 276 261 252 249 244